Regional Weather Roundup
Issued by NWS Charleston, WV

Home | Current Version | Previous Version | Graphics & Text | Print | Product List | Glossary On
Versions: 1 2 3 4 5 6 7 8 9 10 11 12 13 14 15 16 17 18 19 20 21 22 23 24 25 26 27 28 29 30 31 32 33 34 35 36 37 38 39 40 41 42 43 44 45 46 47 48 49 50
000
ASUS41 KRLX 280810
RWRRLX
West Virginia Regional Weather Roundup
National Weather Service Charleston WV
400 AM EDT THU MAY 28 2015

Note: "fair" indicates few or no clouds below 12,000 feet with no
significant weather and/or obstructions to visibility.

WVZ003-280900-
Northern Panhandle of West Virginia

CITY           SKY/WX    TMP DP  RH WIND       PRES   REMARKS
WHEELING       NOT AVBL
$$

WVZ009-280900-
Northwest West Virginia

CITY           SKY/WX    TMP DP  RH WIND       PRES   REMARKS
PARKERSBURG    PTCLDY    65  60  84 CALM      30.19S
$$

WVZ006-280900-
Western West Virginia

CITY           SKY/WX    TMP DP  RH WIND       PRES   REMARKS
HUNTINGTON     PTCLDY    62  60  93 CALM      30.17S
$$

WVZ015-280900-
West Central West Virginia

CITY           SKY/WX    TMP DP  RH WIND       PRES   REMARKS
CHARLESTON     MOCLDY    64  63  96 CALM      30.18S
$$

WVZ022-031-280900-
North Central West Virginia

CITY           SKY/WX    TMP DP  RH WIND       PRES   REMARKS
CLARKSBURG     MOCLDY    62  61  96 CALM      30.17F
MORGANTOWN     PTCLDY    68  59  73 CALM      30.18S
$$

WVZ025-035-042-045-280900-
Southern West Virginia

CITY           SKY/WX    TMP DP  RH WIND       PRES   REMARKS
BECKLEY        PTCLDY    59  56  89 CALM      30.24S
LOGAN            N/A     66  63  88 CALM      30.17S
BLUEFIELD      CLOUDY    67  55  65 CALM      30.26F
LEWISBURG      PTCLDY    58  55  91 CALM      30.24S
$$

WVZ047-280900-
Northern Mountains of West Virginia

CITY           SKY/WX    TMP DP  RH WIND       PRES   REMARKS
ELKINS         FOG       57  56  96 CALM      30.23S VSB 1/2
$$

WVZ052-280900-
Eastern Panhandle of West Virginia

CITY           SKY/WX    TMP DP  RH WIND       PRES   REMARKS
MARTINSBURG    PTCLDY    64  62  93 CALM      30.14R
PETERSBURG     CLEAR     60  58  91 CALM      30.17S FOG
$$


USA.gov is the U.S. government's official web portal to all federal, state and local government web resources and services.